Bellaire, MI

11:03 AM EST on February 14, 2016 (GMT -0500)
Antrim County

Weather History for KACB - October, 2013

Change the Weather History Date:

Wednesday, October 23, 2013

  Actual Average (KTVC) Record (KTVC)
Temperature  
Mean Temperature 38 °F 46 °F  
Max Temperature 43 °F 54 °F 82 °F (1963)
Min Temperature 32 °F 37 °F 22 °F (2008)
Degree Days  
Heating Degree Days 28 19  
Month to date heating degree days 359  
Since 1 July heating degree days 621  
Cooling Degree Days 0 0  
Month to date cooling degree days 0  
Year to date cooling degree days 407  
Moisture  
Dew Point 33 °F    
Average Humidity 91    
Maximum Humidity 99    
Minimum Humidity 58    
Precipitation  
Precipitation 0.00 in 0.10 in 1.36 in (1972)
Month to date precipitation 2.39  
Year to date precipitation 27.03  
Sea Level Pressure  
Sea Level Pressure 29.85 in    
Wind  
Wind Speed 2 mph (WSW)    
Max Wind Speed 10 mph    
Max Gust Speed 22 mph    
Visibility 8 miles    
Events Rain , Snow    
T = Trace of Precipitation, MM = Missing Value Source: NWS Daily Summary

Daily Weather History Graph

Daily Weather History Graph

Search for Another Location

Airport or City:

Trip Planner

Search our weather history database for the weather conditions in past years. The results will help you decide how hot, cold, wet, or windy it might be!

Date:

Astronomy

Oct. 23, 2013 Rise Set
Actual Time 8:07 AM EDT 6:42 PM EDT
Civil Twilight 7:37 AM EDT 7:12 PM EDT
Nautical Twilight 7:03 AM EDT 7:46 PM EDT
Astronomical Twilight 6:29 AM EDT 8:20 PM EDT
Moon 10:05 PM EDT (10/23) 12:30 PM EDT (10/23)
Length of Visible Light 11h 34m
Length of Day
10h 34m
Waning Gibbous, 79% of the Moon is Illuminated
Oct 23
Waning Gibbous
Oct 26
Last Quarter
Nov 3
New
Nov 10
First Quarter
Nov 17
Full

Hourly Weather History & Observations

Time (EDT) Temp. Windchill Dew Point Humidity Pressure Visibility Wind Dir Wind Speed Gust Speed Precip Events Conditions
12:17 AM 35.6 °F - 34.7 °F 97% 29.87 in 10.0 mi Calm Calm - N/A   Overcast
12:37 AM 35.6 °F - 34.7 °F 97% 29.87 in 10.0 mi Calm Calm - N/A   Overcast
12:56 AM 35.6 °F 30.7 °F 34.7 °F 97% 29.87 in 10.0 mi NNW 5.8 mph - N/A   Overcast
1:17 AM 36.5 °F 33.9 °F 32.9 °F 87% 29.86 in 10.0 mi NNW 3.5 mph - N/A   Overcast
1:37 AM 36.5 °F - 32.9 °F 87% 29.86 in 10.0 mi Calm Calm - N/A   Overcast
1:56 AM 35.8 °F - 33.3 °F 91% 29.86 in 10.0 mi Calm Calm - N/A   Overcast
2:17 AM 35.2 °F - 33.8 °F 94% 29.86 in 10.0 mi Calm Calm - N/A   Overcast
2:36 AM 36.0 °F - 33.6 °F 91% 29.86 in 10.0 mi Calm Calm - N/A   Overcast
2:57 AM 36.0 °F - 32.7 °F 88% 29.86 in 10.0 mi Calm Calm - N/A   Overcast
3:16 AM 35.2 °F - 33.3 °F 92% 29.85 in 10.0 mi Calm Calm - N/A   Overcast
3:36 AM 33.8 °F - 32.4 °F 94% 29.85 in 10.0 mi Calm Calm - N/A   Overcast
3:57 AM 34.7 °F 29.6 °F 33.1 °F 94% 29.86 in 7.0 mi NNW 5.8 mph - N/A Snow Light Snow
4:16 AM 33.4 °F 30.4 °F 32.0 °F 94% 29.85 in 1.5 mi NNE 3.5 mph - N/A Snow Light Snow
4:36 AM 33.1 °F - 32.0 °F 96% 29.84 in 10.0 mi Calm Calm - N/A   Mostly Cloudy
4:57 AM 33.1 °F - 32.2 °F 96% 29.83 in 10.0 mi Calm Calm - N/A   Mostly Cloudy
5:16 AM 32.7 °F - 32.0 °F 97% 29.85 in 7.0 mi Calm Calm - N/A Snow Light Snow
5:36 AM 33.1 °F 27.7 °F 32.2 °F 96% 29.85 in 1.2 mi North 5.8 mph - N/A Snow Snow
5:57 AM 33.1 °F - 32.2 °F 96% 29.85 in 3.0 mi Calm Calm - N/A Snow Light Snow
6:16 AM 33.1 °F 30.0 °F 32.4 °F 97% 29.84 in 7.0 mi South 3.5 mph - N/A Snow Light Snow
6:36 AM 33.1 °F - 32.4 °F 97% 29.83 in 7.0 mi Calm Calm - N/A Snow Light Snow
6:57 AM 33.1 °F - 32.4 °F 97% 29.85 in 10.0 mi Calm Calm - N/A   Overcast
7:16 AM 33.1 °F - 32.4 °F 97% 29.83 in 4.0 mi Calm Calm - N/A Snow Light Snow
7:36 AM 32.9 °F - 32.4 °F 98% 29.84 in 3.0 mi Calm Calm - N/A Snow Light Snow
7:57 AM 32.9 °F - 32.4 °F 98% 29.84 in 10.0 mi Calm Calm - N/A   Overcast
8:16 AM 32.9 °F - 32.2 °F 97% 29.84 in 10.0 mi Calm Calm - N/A   Mostly Cloudy
8:37 AM 32.5 °F - 32.0 °F 98% 29.85 in 10.0 mi Calm Calm - N/A   Scattered Clouds
8:55 AM 32.9 °F - 32.4 °F 98% 29.85 in 10.0 mi Calm Calm - N/A   Scattered Clouds
9:14 AM 33.4 °F - 32.9 °F 98% 29.85 in 10.0 mi Calm Calm - N/A   Mostly Cloudy
9:35 AM 33.8 °F 30.8 °F 33.1 °F 97% 29.85 in 7.0 mi SSE 3.5 mph - N/A Snow Light Snow
9:55 AM 34.0 °F - 33.3 °F 97% 29.85 in 10.0 mi Calm Calm - N/A   Overcast
10:15 AM 34.7 °F 29.6 °F 33.8 °F 97% 29.85 in 10.0 mi South 5.8 mph - N/A   Overcast
10:35 AM 35.6 °F 30.7 °F 34.3 °F 95% 29.85 in 10.0 mi South 5.8 mph - N/A   Overcast
10:55 AM 36.1 °F 33.5 °F 34.5 °F 94% 29.85 in 10.0 mi South 3.5 mph - N/A   Overcast
11:14 AM 36.1 °F 29.9 °F 34.5 °F 94% 29.85 in 10.0 mi South 8.1 mph - N/A   Overcast
11:35 AM 37.6 °F 32.3 °F 36.0 °F 94% 29.85 in 10.0 mi South 6.9 mph - N/A   Scattered Clouds
11:55 AM 38.8 °F 32.1 °F 36.1 °F 90% 29.85 in 10.0 mi South 10.4 mph - N/A   Mostly Cloudy
12:15 PM 37.9 °F 35.5 °F 35.4 °F 91% 29.85 in 10.0 mi SSW 3.5 mph - N/A   Overcast
12:35 PM 38.1 °F 34.6 °F 35.6 °F 91% 29.85 in 10.0 mi SSE 4.6 mph - N/A   Overcast
12:55 PM 38.7 °F 34.3 °F 35.4 °F 88% 29.85 in 10.0 mi South 5.8 mph - N/A   Overcast
1:15 PM 38.8 °F 33.8 °F 35.4 °F 88% 29.84 in 10.0 mi South 6.9 mph - N/A   Overcast
1:35 PM 39.0 °F - 35.6 °F 88% 29.84 in 10.0 mi Calm Calm - N/A   Overcast
1:55 PM 40.6 °F 37.5 °F 32.0 °F 71% 29.83 in 10.0 mi NNW 4.6 mph - N/A   Overcast
2:15 PM 43.9 °F 41.3 °F 30.0 °F 58% 29.83 in 10.0 mi WNW 4.6 mph - N/A   Overcast
2:35 PM 42.4 °F 38.8 °F 30.2 °F 62% 29.83 in 10.0 mi WSW 5.8 mph - N/A   Overcast
2:55 PM 42.1 °F 39.2 °F 30.4 °F 63% 29.82 in 10.0 mi WSW 4.6 mph - N/A   Overcast
3:15 PM 41.7 °F 38.8 °F 30.9 °F 66% 29.82 in 10.0 mi NNW 4.6 mph - N/A   Unknown
3:35 PM 39.7 °F 35.6 °F 30.7 °F 70% 29.83 in 5.0 mi WSW 5.8 mph - N/A   Haze
3:55 PM 39.4 °F 33.8 °F 31.8 °F 74% 29.83 in 10.0 mi SW 8.1 mph - N/A   Mostly Cloudy
4:15 PM 36.9 °F 32.2 °F 32.0 °F 83% 29.84 in 1.8 mi WSW 5.8 mph 16.1 mph N/A Snow Light Snow
4:34 PM 36.3 °F 33.7 °F 33.3 °F 89% 29.84 in 10.0 mi SW 3.5 mph - N/A Rain Light Rain
4:55 PM 37.0 °F 29.8 °F 34.2 °F 89% 29.84 in 5.0 mi NNW 10.4 mph 21.9 mph N/A Snow Light Snow
5:15 PM 36.1 °F 31.4 °F 33.4 °F 90% 29.86 in 5.0 mi WNW 5.8 mph - N/A Snow Light Snow
5:34 PM 36.1 °F 33.5 °F 34.0 °F 92% 29.85 in 10.0 mi WNW 3.5 mph - N/A   Mostly Cloudy
5:55 PM 36.1 °F 30.6 °F 33.4 °F 90% 29.86 in 5.0 mi West 6.9 mph - N/A Snow Light Snow
6:15 PM 35.6 °F 32.8 °F 33.6 °F 92% 29.85 in 10.0 mi WSW 3.5 mph - N/A   Overcast
6:35 PM 35.6 °F 32.8 °F 34.0 °F 94% 29.86 in 10.0 mi NNE 3.5 mph - N/A   Overcast
6:55 PM 35.8 °F - 34.3 °F 94% 29.86 in 7.0 mi Calm Calm - N/A Snow Light Snow
7:15 PM 35.4 °F 30.5 °F 33.8 °F 94% 29.87 in 4.0 mi NNE 5.8 mph - N/A Snow Light Snow
7:35 PM 34.7 °F - 32.7 °F 92% 29.86 in 10.0 mi Calm Calm - N/A Rain Light Rain
7:55 PM 34.7 °F - 33.3 °F 94% 29.86 in 2.5 mi Calm Calm - N/A Snow Light Snow
8:15 PM 35.1 °F - 33.4 °F 94% 29.86 in 2.5 mi Calm Calm - N/A Snow Light Snow
8:35 PM 35.4 °F 31.5 °F 33.1 °F 91% 29.86 in 3.0 mi SW 4.6 mph - N/A Snow Light Snow
8:55 PM 34.5 °F - 33.1 °F 94% 29.86 in 10.0 mi Calm Calm - N/A   Overcast
9:14 PM 34.3 °F - 33.1 °F 95% 29.86 in 10.0 mi Calm Calm - N/A   Overcast
9:35 PM 33.6 °F - 32.4 °F 95% 29.86 in 10.0 mi Calm Calm - N/A   Overcast
9:55 PM 33.3 °F - 32.4 °F 96% 29.87 in 7.0 mi Calm Calm - N/A   Overcast
10:14 PM 32.9 °F - 32.0 °F 96% 29.87 in 7.0 mi Calm Calm - N/A   Overcast
10:35 PM 32.4 °F - 32.0 °F 99% 29.87 in 5.0 mi Calm Calm - N/A   Overcast
10:55 PM 32.7 °F - 32.2 °F 98% 29.87 in 10.0 mi Calm Calm - N/A   Overcast
11:14 PM 32.7 °F - 32.2 °F 98% 29.87 in 10.0 mi Calm Calm - N/A   Overcast
11:35 PM 33.1 °F - 32.5 °F 98% 29.87 in 7.0 mi Calm Calm - N/A Snow Light Snow
11:54 PM 32.9 °F - 32.4 °F 98% 29.87 in 7.0 mi Calm Calm - N/A   Overcast